EST,Max TemperatureF,Mean TemperatureF,Min TemperatureF,Max Dew PointF,MeanDew PointF,Min DewpointF,Max Humidity, Mean Humidity, Min Humidity, Max Sea Level PressureIn, Mean Sea Level PressureIn, Min Sea Level PressureIn, Max VisibilityMiles, Mean VisibilityMiles, Min VisibilityMiles, Max Wind SpeedMPH, Mean Wind SpeedMPH, Max Gust SpeedMPH,PrecipitationIn, CloudCover, Events, WindDirDegrees
2013-2-1,30,26,21,19,9,3,80,48,33,30.31,30.02,29.86,10,9,1,23,13,34,0.00,4,Snow,288
2013-2-2,30,24,17,22,12,3,88,62,35,30.35,30.20,30.06,10,7,2,14,8,21,0.05,4,Snow,240
2013-2-3,30,27,24,25,21,18,93,81,64,30.06,29.93,29.84,10,6,1,17,4,24,0.03,6,Snow,353
2013-2-4,30,24,19,21,11,8,72,53,43,30.07,30.00,29.91,10,10,10,18,11,28,0.00,2,,274
2013-2-5,33,30,28,30,27,22,93,85,75,29.98,29.94,29.91,10,6,2,8,4,,0.02,8,Snow,67
2013-2-6,39,32,26,30,24,14,100,77,45,30.38,30.09,29.95,10,5,0,14,4,25,0.00,4,Fog-Snow,301
2013-2-7,35,29,23,23,15,11,72,57,42,30.51,30.43,30.30,10,10,10,13,5,,0.00,2,,69
2013-2-8,39,36,32,36,31,25,97,88,70,30.27,29.87,29.69,10,6,1,22,13,30,0.28,8,Rain-Snow,16
2013-2-9,33,28,21,31,19,7,96,69,41,30.40,30.04,29.80,10,6,0,26,15,37,0.15,4,Fog-Snow,322
2013-2-10,39,28,16,21,12,8,71,52,32,30.52,30.43,30.34,10,10,10,9,5,,0.00,0,,223
2013-2-11,51,40,30,49,38,23,100,93,72,30.31,29.94,29.68,10,4,0,17,5,26,0.40,7,Fog-Rain,262
2013-2-12,46,39,32,36,25,22,79,54,42,30.01,29.93,29.80,10,10,10,21,10,31,0.00,1,,290
2013-2-13,43,35,27,32,27,22,93,76,49,29.99,29.81,29.70,10,7,2,8,4,,0.12,4,Rain-Snow,29
2013-2-14,46,38,30,32,30,26,100,79,46,30.04,29.91,29.74,10,6,2,12,5,,0.04,3,Snow,279
2013-2-15,55,42,28,36,30,25,93,69,36,30.05,30.00,29.94,10,7,2,13,3,18,0.00,2,Rain,246
2013-2-16,37,34,30,34,27,12,93,74,47,30.00,29.93,29.79,10,9,7,17,8,24,0.03,8,Rain,347
2013-2-17,32,26,21,12,6,-1,55,40,34,30.11,29.87,29.75,10,10,2,25,16,44,0.00,4,Snow,315
2013-2-18,36,28,19,12,6,1,50,41,31,30.34,30.25,30.12,10,10,10,17,12,25,0.00,0,,274
2013-2-19,46,36,25,43,30,13,93,71,45,30.21,29.90,29.73,10,8,4,20,5,25,0.18,4,Rain,206
2013-2-20,36,31,25,24,12,7,62,47,40,30.09,29.95,29.82,10,10,10,22,16,36,0.00,3,,292
2013-2-21,35,30,24,15,12,8,63,50,42,30.33,30.15,30.06,10,10,10,21,14,30,0.00,4,,312
2013-2-22,37,30,23,32,21,14,89,67,54,30.43,30.35,30.28,10,10,10,9,7,,0.00,4,Rain,82
2013-2-23,46,40,33,46,40,33,100,96,93,30.27,30.03,29.81,10,3,2,14,6,,0.19,8,Rain,61
2013-2-24,46,39,32,37,30,18,96,73,51,30.05,29.87,29.80,10,10,4,21,9,28,0.00,5,,324
2013-2-25,44,37,30,26,23,19,79,59,45,30.25,30.17,30.06,10,10,10,12,8,,0.00,3,,338
2013-2-26,45,36,26,37,30,22,93,76,53,30.27,30.13,29.82,10,9,3,22,8,32,0.32,5,Rain,87
2013-2-27,51,45,39,47,41,33,100,84,61,29.75,29.59,29.52,10,6,2,23,14,32,0.26,7,Rain,333
2013-2-28,46,42,37,36,31,23,76,63,42,29.68,29.64,29.60,10,10,10,16,7,24,0.00,7,Rain,290